Location: Street
(51.1247°N, 2.7429°W)
Time: 23:24:52
(UTC+00:00)

MOZHAYETS 4 - Visible Passes

Search period start: 22 March 2023 00:00
Search period end: 01 April 2023 01:00
Orbit: 658 x 676 km, 98.2° (Epoch: 22 March)

Date Brightness Start Highest point End Pass type
(mag) Time Alt. Az. Time Alt. Az. Time Alt. Az.
22 Mar 10.7 00:47:11 11° NE 00:47:11 11° NE 00:48:09 10° NE visible
22 Mar 9.4 02:25:19 29° N 02:25:19 29° N 02:27:37 10° N visible
22 Mar 10.0 04:03:27 11° NW 04:03:27 11° NW 04:03:47 10° NW visible
23 Mar 10.2 01:19:12 18° NE 01:19:12 18° NE 01:21:31 10° NNE visible
23 Mar 9.2 02:57:19 28° NNW 02:57:19 28° NNW 02:59:29 10° NNW visible
24 Mar 9.6 01:51:12 27° NNE 01:51:12 27° NNE 01:53:56 10° N visible
24 Mar 9.4 03:29:20 21° NW 03:29:20 21° NW 03:31:06 10° NNW visible
25 Mar 10.6 00:45:03 10° NE 00:45:26 11° NE 00:46:22 10° NE visible
25 Mar 9.0 02:23:11 36° N 02:23:11 36° N 02:26:02 10° N visible
25 Mar 9.7 04:01:18 14° NW 04:01:18 14° NW 04:02:16 10° NW visible
26 Mar 10.1 02:17:02 18° NE 02:17:02 18° NE 02:19:52 10° NNE visible
26 Mar 8.8 03:55:10 36° NNW 03:55:10 36° NNW 03:57:54 10° NNW visible
27 Mar 9.5 02:49:01 29° NE 02:49:01 29° NE 02:52:18 10° N visible
27 Mar 9.0 04:27:09 26° NW 04:27:09 26° NW 04:29:31 10° NNW visible
28 Mar 10.6 01:43:17 10° ENE 01:43:51 10° NE 01:44:25 10° NE visible
28 Mar 8.7 03:20:59 45° NNE 03:20:59 45° NNE 03:24:24 10° N visible
28 Mar 9.5 04:59:07 16° WNW 04:59:07 16° WNW 05:00:43 10° NW visible
29 Mar 10.1 02:14:49 17° ENE 02:15:12 18° ENE 02:18:12 10° NNE visible
29 Mar 8.3 03:52:57 47° NNW 03:52:57 47° NNW 03:56:16 10° NNW visible
30 Mar 9.4 02:46:48 30° ENE 02:46:48 30° ENE 02:50:38 10° N visible
30 Mar 8.7 04:24:56 32° WNW 04:24:56 32° WNW 04:27:53 10° NNW visible
31 Mar 8.4 03:18:45 52° NE 03:18:45 52° NE 03:22:44 10° N visible
31 Mar 9.3 04:56:53 19° WNW 04:56:53 19° WNW 04:59:07 10° NW visible
